STARLINK-30442, 57868

Orbit data source: Space-Track

STARLINK-30442, 57868 is a payload satellite owned by SpaceX/Seattle (US) in LEO that was launched on Sat, 16 Sep 2023 UTC via an FALCON 9 launch vehicle from the Air Force Eastern Test Range (AFETR). Payload-class satellites include a variety of spacecraft equipped with specific instruments for various scientific and technological missions. These include communications satellites like Starlink; space stations such as the ISS; scientific satellites like the Hubble; Earth observation satellites from companies like Planet Labs, Umbra, and HawkEye 360; GPS; miniature CubeSats for education and research; and military/defense satellites.

Loading next visibility...
Identifier
57868, 2023-144E
Orbit
LEO
Country
Flag of USUS
Related business
Manufacturer
SpaceX/Seattle
Mission
Operational Commercial Communications
Bus & Motor
STARLINK V2M, Unknown motor
Mass
730 kg wet, ~700 kg dry
Launch date (UTC)
2023-09-16 (3 years ago)
Launch vehicle
FALCON 9
Launch site
Air Force Eastern Test Range (AFETR)
Object type
Payload
Rocket body
Debris
Shape & HBR
Box + 2 Pan, 17.7 m
Radar Cross Section
33.884 m², Large (>1 m²)

Expand to show TLE details & history
Last TLE update: 2 days ago

TLE from 2 days ago
0 STARLINK-30442
1 57868U 23144E   26171.12559516  .00001808  00000-0  75203-4 0  9997
2 57868  43.0017  66.6596 0001017 264.1042  95.9694 15.27579681153267
Epoch: 2026-06-20T03:00Z
TLE epoch observation values (Epoch: 2026-06-20T03:00:51.421Z)
Latitude
-0.00002°
Longitude
113.10063°
Altitude
482.898 km
Speed
7.626 km/s
True Right ascension
04h 26m 38s
True Declination
0° 00' 00"
Sunlit
Object was in daylight at epoch
Visualization orbit readout
Latitude
Unknown
Longitude
Unknown
Altitude
Unknown
Speed
Unknown
Apparent Right ascension
Unknown
Apparent Declination
Unknown
Sunlit
N/A
Visualization observer readout
Local Sidereal Time
23:21:09
Azimuth
Unknown
Elevation
Unknown
Doppler factor
Unknown
Orbital elements
Apogee altitude
485.693 km
Perigee altitude
484.297 km
Semi-major axis
6,863.132 km
Eccentricity
0.0001
Inclination
43.0017°
RAAN
66.6596°
Arg. of periapsis
264.1042°
True anomaly
95.98099°
Mean anomaly
95.9694°
Eccentric anomaly
95.9752°
Mean motion
3.81733 °/min
Orbital period
94.31 mins
BSTAR
0.000075203
Loading maneuver chart data...
Computing Atmospheric mass density...
Loading historical data...
Loading historical data...
Loading historical data...
Loading historical data...
Loading historical data...
Loading historical data...
Loading historical data...

Documentation

Showing up to 5 results
|